Regional Weather Roundup
Issued by NWS Wakefield, VA

Home | Current Version | Previous Version | Text Only | Print | Product List | Glossary On
Versions: 1 2 3 4 5 6 7 8 9 10 11 12 13 14 15 16 17 18 19 20 21 22 23 24 25 26 27
000
ASUS41 KAKQ 302215
RWRAKQ

REGIONAL WEATHER ROUNDUP
NATIONAL WEATHER SERVICE WAKEFIELD VA
600 PM EDT SAT JUL 30 2016

Note: "fair" indicates few or no clouds below 12,000 feet with no
significant weather and/or obstructions to visibility. * = Denotes
station may not report precipitation (e.g., rain,snow,etc.),
thunder or fog.

VAZ042-051-052>054-056-302300-
NORTHERN VIRGINIA

CITY           SKY/WX    TMP DP  RH WIND       PRES   REMARKS
WASH NATIONAL  CLOUDY    84  73  69 S20       29.92R
DULLES         TSTM      83  72  69 S10       29.91S
FORT BELVOIR   FAIR      82  74  75 S13       29.92R
QUANTICO       NOT AVBL
FREDERICKSBRG* FAIR      83  74  76 S9        29.94R
STAFFORD*      FAIR      80  72  75 S7        29.97R
WARRENTON      PTSUNNY   82  71  68 W5        29.94R THUNDER
CULPEPER*      CLOUDY    78  71  79 NW12G20   29.98R THUNDER
MANASSAS*      PTSUNNY   82  75  78 S13       29.92R
LEESBURG*      TSTM      81  79  94 S8        29.92R
WINCHESTER     PTSUNNY   79  70  73 W13G21    29.95R
FRONT ROYAL*   FAIR      77  72  83 SW5       29.91S
LURAY*         MOCLDY    75  75 100 CALM      29.93
$$

VAZ048-049-060>072-079>083-302300-
CENTRAL AND SOUTH CENTRAL VIRGINIA

CITY           SKY/WX    TMP DP  RH WIND       PRES   REMARKS
RICHMOND       PTSUNNY   79  74  84 SE20      29.94R
CHESTERFIELD*  CLOUDY    82  66  57 SE13      29.96S
PETERSBURG*    CLOUDY    81  76  86 SE5       29.97F
HANOVER        FAIR      81  72  74 S8        29.96R
TAPPAHANNOCK*  FAIR      81  78  90 SE13      29.96R
QUINTON*       MOCLDY    78  74  89 SE5       29.95R
CHARLOTTSVILLE FAIR      79  71  76 S9        29.93R
GORDONSVILLE*  CLOUDY    79  77  95 CALM      29.94R
ORANGE*          N/A     81  77  89 SE5       29.95R
LOUISA*        DRIZZLE   82  77  83 S7        29.94R
BUMPASS*       FAIR      79  74  85 SE3       29.95R
FARMVILLE*     FAIR      85  79  81 SE7       29.93R HX  98
CREWE*         NOT AVBL
FORT PICKETT*  MOCLDY    81  78  92 SE6       29.97R
CHASE CITY*    FAIR      80  78  94 E7        29.95R
CLARKSVILLE*   FAIR      86  77  74 NE8       29.93R HX  97
SOUTH HILL*    PTSUNNY   77  75  93 N3        30.00F
LAWRENCEVILLE* CLOUDY    76  75  97 E7        29.97R
EMPORIA*       LGT SNOW  73  73 100 E10       29.97F
$$

VAZ088>098-302300-
SOUTHEAST VIRGINIA

CITY           SKY/WX    TMP DP  RH WIND       PRES   REMARKS
NORFOLK        TSTM      77  76  96 S8        29.97F
VIRGINIA BEACH TSTM      84  76  76 S6        29.97F
NORFOLK NAVAL  LGT RAIN  76  74  93 S7        29.98S
WEST POINT*    PTSUNNY   79  74  86 SE8       29.96F
SALUDA*        FAIR      79  77  93 SE8       29.94F
NEWPORT NEWS   LGT RAIN  77  74  90 S9        29.95F
LANGLEY AFB    PTSUNNY   77  74  90 S10       29.95F
FORT EUSTIS    FAIR      77  74  90 S14G20    29.94F
WILLIAMSBURG*  FAIR      79  77  94 S13G20    29.96S
HR EXEC AP*    FAIR      75  72  88 SE5       29.99F
FRANKLIN*      DRIZZLE   74  73  95 S3        29.99R
US460-WAKEFLD  LGT RAIN  75  72  90 S9        29.96S
$$

VAZ020-022-025-037-045-302300-
WEST CENTRAL AND SOUTHWEST VIRGINIA

CITY           SKY/WX    TMP DP  RH WIND       PRES   REMARKS
STAUNTON*      FAIR      85  69  58 SW9       29.93F
WAYNESBORO*    FAIR      84  71  64 SE12G17   29.95S
HOT SPRINGS VA PTSUNNY   77  66  69 W12       30.09R
LYNCHBURG      FAIR      86  71  60 SW6       29.95R
DANVILLE       FAIR      87  72  60 NW7       29.93S
SOUTH BOSTON*  CLOUDY   N/A N/A N/A NW6       29.94R
MARTINSVILLE   FAIR      88  72  60 W5        29.98S
ROANOKE        FAIR      86  70  58 S5        29.96F
BLACKSBURG     FAIR      83  70  65 NW6       30.05R
DUBLIN*        FAIR      85  68  58 NW7       30.03S
MARION*        PTSUNNY   82  67  60 SW6       30.09R
HILLSVILLE*    CLOUDY    81  67  63 SW6       30.05S
RICHLANDS*     MOCLDY    80  70  73 SW8       30.08R
WISE*          PTSUNNY   82  59  44 W3        30.09R
ABINGDON*      PTSUNNY   84  67  57 W9        30.05R
$$

MDZ021>025-VAZ099-100-302300-
SOUTHERN MARYLAND AND THE DELMARVA PENINSULA

CITY           SKY/WX    TMP DP  RH WIND       PRES   REMARKS
PATUXENT RIVER CLOUDY    82  72  71 S10G21    29.95R
BAY BRIDGE APT MOSUNNY   86  68  54 S18G25    29.93R
LEONARDTOWN    CLOUDY    81  72  74 SE9       29.97R
DOVER          MOSUNNY   83  74  73 SE14      29.95R
GEORGETOWN     CLOUDY    82  69  64 S13       29.98R
EASTON         PTSUNNY   84  72  65 S16G23    29.99R
CAMBRIDGE      CLOUDY    81  63  54 S13       29.96R
SALISBURY      NOT AVBL
OCEAN CITY     CLOUDY    81  72  74 S6        29.98R
WALLOPS ISLAND FAIR      80  73  79 S12       29.98R
ACCOMACK*      FAIR      79  73  83 CALM      29.97F
$$

NCZ012>017-030>032-302300-
NORTH CENTRAL AND EASTERN NORTH CAROLINA

CITY           SKY/WX    TMP DP  RH WIND       PRES   REMARKS
ROANOKE RAPIDS MOCLDY    77  73  88 E9        29.96S
RALEIGH        PTSUNNY   84  78  82 CALM      29.93S HX  95
ELIZABETH CITY CLOUDY    75  73  93 SE9       29.98F
AHOSKIE*       LGT RAIN  74  73  97 NE5       30.00R
EDENTON*       CLOUDY    77  77  99 SE5       29.96F
CURRITUCK*     LGT RAIN  74  74 100 SE3       29.97F
KILL DEVIL HLS RAIN      75  75 100 CALM      30.00S
MANTEO         RAIN      74  73  98 S5G12     30.00F
CAPE HATTERAS  CLOUDY    83  80  91 SW5       29.99S HX  95
TARBORO*       MOCLDY    82  74  78 NE7       29.96R
GOLDSBORO      MOSUNNY   97  70  41 SW20G25   29.91R HX 104
WASHINGTON     CLOUDY    78  75  91 SE7       29.94F
GREENVILLE     CLOUDY    81  77  89 SE6       29.95S
NEW BERN       CLOUDY    81  75  82 E3        29.95F
WILMINGTON     MOSUNNY   92  72  51 S10       29.95R HX  99
$$

VAZ048-302300-
ELSEWHERE

CITY           SKY/WX    TMP DP  RH WIND       PRES   REMARKS
HARRISBURG PA  LGT RAIN  74  73  97 SE8       29.94F
BALTIMORE      CLOUDY    81  71  71 SE7       29.92R THUNDER
ANNAPOLIS      MOSUNNY  N/A N/A N/A CALM      29.93R
ANDREWS AFB    FAIR      82  72  72 S10G20    29.93R
PHILADELPHIA   LGT RAIN  79  71  76 S8        29.98S
GREENSBORO     MOSUNNY   91  68  46 N8        29.94S HX  95
ROCKY MOUNT    CLOUDY    93  74  53 S6        29.92S HX 103
$$

VAZ100-302300-
MARINE

STATION/POSITION TIME  TEMP    WIND        PRES    WAVE   SWELL
                       AIR SEA DIR/SP/G            HT/PER HT/PER
                 (UTC) (F)     (DEG/KT/KT) (MB)    (FT/S) (FT/S)
BRANDYWINE LGT   2100   75     170/ 14/ 16   N/A
CAPE MAY NJ      2100   79 76  170/  9/ 12 1014.7R
LEWES DE         2100   81 75  160/  8/ 13 1014.5F
OCEAN-CITY-INLET 2100   79 76  180/  5/  8 1015.2F
WACHAPREAGUE VA  2100   79 85  170/ 10/ 12 1014.7F
THOMAS POINT MD  2200   83 83  160/ 22/ 26 1014.6R
GOOSES REEF MD   2100   84 84  160/ 19/ 23 1013.9F   3/ 3
COVE POINT MD    2100   81     180/ 20/ 26 1014.1F
SOLOMONS ISLAND  2100   82 86  160/ 15/ 18   N/A
BISHOPS HEAD MD  2100   82     140/ 18/ 21 1014.0F
PINEY POINT MD   2100          180/ 17/ 19   N/A
POTOMAC MD       2100   82 85  170/ 17/ 21 1012.7F   3/ 3
CAMBRIDGE MD     2100   84 87  160/  9/ 14 1013.0F
LEWISETTA VA     2100   81 86  170/ 13/ 17 1013.5F
RAPPAHANNOCK LGT 2100          150/ 18/ 19 1015.4S
STINGRAY PT      2100   81 86  100/ 19/ 21 1014.6F   3/ 3
YORK RVR RNG VA  2100   81     160/ 23/ 27 1013.7F
YORKTOWN VA      2100   78 84  160/ 11/ 15 1014.1F
JAMESTOWN VA     2100   79 88  140/ 16/ 17   N/A     2/ 3
DOMINION TERM VA 2100   78     160/ 18/ 21 1014.9F
KIPTOPEKE VA     2100      81  150/ 12/ 15   N/A
CHES BAY BRIDGE  2100   79 79  160/ 15/ 19 1014.7F
CAPE HENRY VA    2100   78     150/  9/ 11   N/A
WILLOUBY STN VA  2100   78     160/ 18/ 20   N/A
CAPE HENRY BUOY  2112      81                N/A     3/ 7
1ST LANDING BUOY 2100   80 82  170/ 16/ 17 1014.6F   2/ 3
64NM E OF VA BCH 2150   82 83  210/ 10/ 12 1015.0F   2/ 6   2/ 6
DUCK PIER NC     2100   81 79  140/  9/ 11 1014.9S
44100 DUCK FRF   2105      83                N/A     2/ 7
44056 DUCK FRF   2111      81                N/A     2/ 7
OREGON INLET NC  2100   80 80  140/  7/ 11 1015.3F
HATTERAS NC      2100   85 83  170/  7/  9 1015.2R
DIAMOND SHLS NC  2150   84 85  180/ 16/ 19 1014.7F   3/ 6   2/ 6
CAPE LOOKOUT NC  2200   85     180/ 15/ 16 1013.9F
$$




USA.gov is the U.S. government's official web portal to all federal, state and local government web resources and services.